Regional Weather Roundup
Issued by NWS Charleston, WV

Home | Current Version | Previous Version | Graphics & Text | Print | Product List | Glossary On
Versions: 1 2 3 4 5 6 7 8 9 10 11 12 13 14 15 16 17 18 19 20 21 22 23 24 25 26 27 28 29 30 31 32 33 34 35 36 37 38 39 40 41 42 43 44 45 46 47 48 49 50
000
ASUS41 KRLX 300010
RWRRLX
West Virginia Regional Weather Roundup
National Weather Service Charleston WV
800 PM EDT FRI MAY 29 2015

Note: "fair" indicates few or no clouds below 12,000 feet with no
significant weather and/or obstructions to visibility.

WVZ003-300100-
Northern Panhandle of West Virginia

CITY           SKY/WX    TMP DP  RH WIND       PRES   REMARKS
WHEELING       PTCLDY    78  65  63 SE7       30.12R
$$

WVZ009-300100-
Northwest West Virginia

CITY           SKY/WX    TMP DP  RH WIND       PRES   REMARKS
PARKERSBURG    MOCLDY    75  70  84 CALM      30.14R
$$

WVZ006-300100-
Western West Virginia

CITY           SKY/WX    TMP DP  RH WIND       PRES   REMARKS
HUNTINGTON     CLOUDY    75  67  76 SE3       30.11R
$$

WVZ015-300100-
West Central West Virginia

CITY           SKY/WX    TMP DP  RH WIND       PRES   REMARKS
CHARLESTON     MOCLDY    71  68  90 CALM      30.13S
$$

WVZ022-031-300100-
North Central West Virginia

CITY           SKY/WX    TMP DP  RH WIND       PRES   REMARKS
CLARKSBURG     PTCLDY    76  66  71 S5        30.15S
MORGANTOWN     PTCLDY    77  63  61 SE6       30.16R
$$

WVZ025-035-042-045-300100-
Southern West Virginia

CITY           SKY/WX    TMP DP  RH WIND       PRES   REMARKS
BECKLEY        CLOUDY    67  63  87 SE8       30.24R
LOGAN          MOCLDY    73  63  68 CALM      30.14S
BLUEFIELD      MOCLDY    72  62  71 SE5       30.27R
LEWISBURG      MOCLDY    70  62  73 SW8       30.26R
$$

WVZ047-300100-
Northern Mountains of West Virginia

CITY           SKY/WX    TMP DP  RH WIND       PRES   REMARKS
ELKINS         MOCLDY    70  63  78 SE3       30.22R
$$

WVZ052-300100-
Eastern Panhandle of West Virginia

CITY           SKY/WX    TMP DP  RH WIND       PRES   REMARKS
MARTINSBURG    CLOUDY    78  68  71 S5        30.18S
PETERSBURG     PTCLDY    75  65  72 CALM      30.19R
$$



USA.gov is the U.S. government's official web portal to all federal, state and local government web resources and services.